Date String (YYYY-MM-DD hh:mm:ss) UTC,Instrument flags,absolute air pressure of the measurement (hPa),sample flow rate (lpm),inlet stack bypass flow (lpm),air temperature of the measurement (°C),ambient temperature measured by the external sensor (°C),aerosol sample conditioner tube jacket temperature (°C),OPC LED temperature (°C),internal box temperature (°C),relative humidity of the measurement (%),span deviation,mass concentration of particles derived from Lorenz-Mie calculation of OPC scattering (μg/m³),mass concentration of particles derived from Lorenz-Mie calculation of OPC scattering (μg/m³),mass concentration of particles derived from Lorenz-Mie calculation of OPC scattering (μg/m³)
DateTimeUTC,F1_M11,P_M11,Q1_M11,Q2_M11,T1_M11,T2_M11,T3_M11,T4_M11,T5_M11,U1_M11,ZSPAN_M11,X0_M11,X2_M11,X1_M11
2024-04-29 18:00:00,SystemResetWarning,0825.9,5.00,000.00,025.1,024.3,000.0,033.4,026.8,013.9,0000.0,0011.03,0004.43,0001.89
2024-04-29 18:01:00,SystemResetWarning,0825.9,5.00,000.00,025.1,024.3,000.0,033.4,026.8,013.8,0000.0,0010.78,0004.38,0001.88
2024-04-29 18:02:00,SystemResetWarning,0825.9,4.99,000.00,025.1,024.3,000.0,033.4,026.8,013.3,0000.0,0010.64,0004.34,0001.87
2024-04-29 18:03:00,SystemResetWarning,0825.9,4.99,000.00,025.1,024.3,000.0,033.4,026.8,014.0,0000.0,0010.21,0004.25,0001.85
2024-04-29 18:04:00,SystemResetWarning,0825.9,4.99,000.00,025.1,024.3,000.0,033.4,026.8,013.9,0000.0,0009.87,0004.18,0001.85
2024-04-29 18:05:00,SystemResetWarning,0825.9,5.00,000.00,025.1,024.3,000.0,033.4,026.8,014.3,0000.0,0009.88,0004.16,0001.85
2024-04-29 18:06:00,SystemResetWarning,0825.9,5.01,000.00,025.1,024.4,000.0,033.4,026.8,013.7,0000.0,0010.45,0004.15,0001.84
2024-04-29 18:07:00,SystemResetWarning,0825.9,5.01,000.00,025.1,024.4,000.0,033.4,026.9,013.9,0000.0,0010.38,0004.11,0001.84
2024-04-29 18:08:00,SystemResetWarning,0825.9,4.99,000.00,025.1,024.4,000.0,033.4,026.9,014.5,0000.0,0010.25,0004.09,0001.84
2024-04-29 18:09:00,SystemResetWarning,0825.9,4.99,000.00,025.1,024.4,000.0,033.5,026.9,013.8,0000.0,0010.13,0004.08,0001.85
2024-04-29 18:10:00,SystemResetWarning,0825.9,5.00,000.00,025.1,024.4,000.0,033.5,026.9,013.4,0000.0,0010.56,0004.10,0001.84
2024-04-29 18:11:00,SystemResetWarning,0825.9,5.00,000.00,025.1,024.4,000.0,033.5,026.9,014.4,0000.0,0010.63,0004.14,0001.83
2024-04-29 18:12:00,SystemResetWarning,0825.9,5.00,000.00,025.1,024.4,000.0,033.5,026.9,013.8,0000.0,0010.94,0004.19,0001.82
2024-04-29 18:13:00,SystemResetWarning,0825.9,5.01,000.00,025.2,024.4,000.0,033.5,026.9,013.4,0000.0,0011.61,0004.32,0001.84
2024-04-29 18:14:00,SystemResetWarning,0825.9,5.00,000.00,025.2,024.4,000.0,033.5,026.9,013.6,0000.0,0012.20,0004.31,0001.86
2024-04-29 18:15:00,SystemResetWarning,0825.9,5.00,000.00,025.2,024.5,000.0,033.5,026.9,013.1,0000.0,0012.51,0004.33,0001.86
2024-04-29 18:16:00,SystemResetWarning,0825.9,5.01,000.00,025.2,024.5,000.0,033.5,026.9,013.5,0000.0,0012.94,0004.35,0001.88
2024-04-29 18:17:00,SystemResetWarning,0825.9,5.00,000.00,025.2,024.5,000.0,033.5,026.9,013.6,0000.0,0012.27,0004.31,0001.89
2024-04-29 18:18:00,SystemResetWarning,0825.9,5.00,000.00,025.2,024.5,000.0,033.5,027.0,013.8,0000.0,0012.17,0004.31,0001.86
2024-04-29 18:19:00,SystemResetWarning,0825.9,4.99,000.00,025.2,024.5,000.0,033.5,027.0,014.1,0000.0,0012.24,0004.31,0001.85
2024-04-29 18:20:00,SystemResetWarning,0825.9,4.99,000.00,025.2,024.5,000.0,033.5,027.0,012.9,0000.0,0012.56,0004.34,0001.83
2024-04-29 18:21:00,SystemResetWarning,0825.9,5.00,000.00,025.2,024.5,000.0,033.6,027.0,013.8,0000.0,0012.38,0004.31,0001.81
2024-04-29 18:22:00,SystemResetWarning,0825.9,5.01,000.00,025.2,024.5,000.0,033.6,027.0,013.8,0000.0,0012.57,0004.30,0001.82
2024-04-29 18:23:00,SystemResetWarning,0825.9,5.00,000.00,025.3,024.5,000.0,033.6,027.0,014.2,0000.0,0012.45,0004.27,0001.83
2024-04-29 18:24:00,SystemResetWarning,0825.9,5.00,000.00,025.3,024.5,000.0,033.6,027.0,014.1,0000.0,0011.95,0004.18,0001.82
2024-04-29 18:25:00,SystemResetWarning,0825.9,5.00,000.00,025.3,024.5,000.0,033.6,027.0,013.6,0000.0,0011.30,0004.17,0001.81
2024-04-29 18:26:00,SystemResetWarning,0825.8,4.99,000.00,025.3,024.6,000.0,033.6,027.0,013.6,0000.0,0011.10,0004.19,0001.80
2024-04-29 18:27:00,SystemResetWarning,0825.8,4.99,000.00,025.3,024.6,000.0,033.6,027.1,014.3,0000.0,0011.26,0004.18,0001.80
2024-04-29 18:28:00,SystemResetWarning,0825.8,5.00,000.00,025.3,024.6,000.0,033.6,027.1,013.4,0000.0,0011.51,0004.19,0001.79
2024-04-29 18:29:00,SystemResetWarning,0825.8,5.01,000.00,025.3,024.6,000.0,033.6,027.1,013.7,0000.0,0011.42,0004.20,0001.82
2024-04-29 18:30:00,SystemResetWarning,0825.8,5.00,000.00,025.3,024.6,000.0,033.6,027.1,013.6,0000.0,0011.42,0004.19,0001.82
2024-04-29 18:31:00,SystemResetWarning,0825.8,4.99,000.00,025.3,024.6,000.0,033.7,027.1,014.4,0000.0,0011.43,0004.13,0001.83
2024-04-29 18:32:00,SystemResetWarning,0825.8,5.00,000.00,025.3,024.6,000.0,033.7,027.1,013.4,0000.0,0011.91,0004.09,0001.84
2024-04-29 18:33:00,SystemResetWarning,0825.8,5.01,000.00,025.4,024.7,000.0,033.7,027.1,013.5,0000.0,0011.74,0004.03,0001.83
2024-04-29 18:34:00,SystemResetWarning,0825.8,5.01,000.00,025.4,024.7,000.0,033.7,027.2,014.2,0000.0,0011.98,0004.04,0001.85
2024-04-29 18:35:00,SystemResetWarning,0825.8,4.99,000.00,025.4,024.7,000.0,033.7,027.2,014.0,0000.0,0012.07,0004.06,0001.85
2024-04-29 18:36:00,SystemResetWarning,0825.8,4.99,000.00,025.4,024.7,000.0,033.7,027.2,013.0,0000.0,0011.97,0004.03,0001.85
2024-04-29 18:37:00,SystemResetWarning,0825.8,5.02,000.00,025.4,024.7,000.0,033.7,027.2,013.6,0000.0,0011.96,0004.02,0001.84
2024-04-29 18:38:00,SystemResetWarning,0825.8,4.99,000.00,025.4,024.7,000.0,033.7,027.2,013.3,0000.0,0011.48,0004.00,0001.82
2024-04-29 18:39:00,SystemResetWarning,0825.8,4.98,000.00,025.4,024.7,000.0,033.7,027.2,013.8,0000.0,0011.18,0004.00,0001.82
2024-04-29 18:40:00,SystemResetWarning,0825.8,5.02,000.00,025.5,024.8,000.0,033.8,027.2,014.6,0000.0,0011.18,0004.00,0001.80
2024-04-29 18:41:00,SystemResetWarning,0825.8,5.01,000.00,025.5,024.8,000.0,033.8,027.3,014.3,0000.0,0011.02,0003.95,0001.80
2024-04-29 18:42:00,SystemResetWarning,0825.8,5.00,000.00,025.5,024.8,000.0,033.8,027.3,014.2,0000.0,0010.96,0003.94,0001.79
2024-04-29 18:43:00,SystemResetWarning,0825.8,4.99,000.00,025.5,024.8,000.0,033.8,027.3,013.5,0000.0,0010.07,0003.97,0001.79
2024-04-29 18:44:00,SystemResetWarning,0825.7,4.99,000.00,025.5,024.8,000.0,033.8,027.3,013.7,0000.0,0009.84,0003.96,0001.79
2024-04-29 18:45:00,SystemResetWarning,0825.8,5.00,000.00,025.5,024.8,000.0,033.8,027.3,013.9,0000.0,0009.41,0003.95,0001.77
2024-04-29 18:46:00,SystemResetWarning,0825.8,5.01,000.00,025.5,024.8,000.0,033.8,027.3,013.1,0000.0,0009.35,0003.91,0001.76
2024-04-29 18:47:00,SystemResetWarning,0825.7,5.01,000.00,025.5,024.8,000.0,033.8,027.3,013.9,0000.0,0009.93,0003.92,0001.76
2024-04-29 18:48:00,SystemResetWarning,0825.8,4.99,000.00,025.5,024.8,000.0,033.8,027.3,014.5,0000.0,0010.06,0003.96,0001.76
2024-04-29 18:49:00,SystemResetWarning,0825.7,4.99,000.00,025.5,024.8,000.0,033.9,027.3,013.4,0000.0,0010.14,0003.99,0001.76
2024-04-29 18:50:00,SystemResetWarning,0825.7,5.01,000.00,025.5,024.8,000.0,033.9,027.3,014.5,0000.0,0010.38,0004.03,0001.76
2024-04-29 18:51:00,SystemResetWarning,0825.7,5.01,000.00,025.6,024.9,000.0,033.9,027.3,014.6,0000.0,0010.37,0003.99,0001.74
2024-04-29 18:52:00,SystemResetWarning,0825.8,4.99,000.00,025.6,024.9,000.0,033.9,027.3,013.9,0000.0,0010.60,0004.06,0001.74
2024-04-29 18:53:00,SystemResetWarning,0825.7,4.99,000.00,025.6,024.9,000.0,033.9,027.3,013.9,0000.0,0010.49,0004.07,0001.72
2024-04-29 18:54:00,SystemResetWarning,0825.7,5.02,000.00,025.6,024.9,000.0,033.9,027.4,013.9,0000.0,0010.37,0004.02,0001.70
2024-04-29 18:55:00,SystemResetWarning,0825.7,5.01,000.00,025.6,024.9,000.0,033.9,027.4,013.4,0000.0,0010.36,0003.99,0001.69
2024-04-29 18:56:00,SystemResetWarning,0825.6,4.99,000.00,025.6,024.9,000.0,033.9,027.4,014.5,0000.0,0010.71,0003.97,0001.68
2024-04-29 18:57:00,SystemResetWarning,0825.6,5.00,000.00,025.6,024.9,000.0,033.9,027.4,014.2,0000.0,0011.21,0003.97,0001.68
2024-04-29 18:58:00,SystemResetWarning,0825.6,4.99,000.00,025.6,024.9,000.0,033.9,027.4,013.6,0000.0,0010.94,0003.97,0001.67
2024-04-29 18:59:00,SystemResetWarning,0825.6,5.00,000.00,025.6,024.9,000.0,034.0,027.4,014.0,0000.0,0010.85,0003.94,0001.66
